ICEYE-X35

导读

ICEYE-X35(冰眼X35)是芬兰冰眼公司研发的合成孔径雷达遥感卫星,于2023年11月11日,在美国范登堡SLC-4E发射基地由SpaceX猎鹰9号火箭送入近地轨道。卫星轨道高度处于486-508km,轨道倾角97.4°,隶属于冰眼卫星星座,服务于对地观测业务,可提供全天时、全天候的高分辨率雷达遥感数据,支撑灾害监测、资源勘探等多领域应用。

基本信息
目录编号:
58302
目录名称:
ICEYE-X35
国际标识:
2023-174AY
轨道中心:
EARTH
卫星名称:
ICEYE-X35
卫星全名:
--
卫星状态:
在轨 (已飞行989 天)
发射日期:
2023-11-11 UTC
国别 :
(FI)
星等 :
--
轨道信息
数据来源 国际轨道数据
星历时间: 2026-07-27T22:31:10+0800
7小时前
查看轨道信息
半长轴: 6776.411km
偏心率: 0.0006236
轨道倾角: 97.379°
近地点辐角 60.295°
升交点赤经 294.403°
平近点角 299.892°
近地点: 394.048km
远地点: 402.5km
周期: 92.525分钟
每日圈数: 15.563354
详细信息
使用方式:
暂无
2D轨道图
3D轨道图
轨道高度分析图
轨道倾角分析图
轨道综合分析图
查看轨道综合分析图